Wetterdaten: Donnerstag, 13.09.2007
Datum Zeit Temp. a Sch. Temp. a Son. Temp. a Bod. Feuchte a. Luftdruck Regen Wind Richtung Richtung Sonnenschein Helligkeit Taupunkt Windchill
13.09.2007 00:00 8,0 C 7,5 C 9,0 C 92 % 1026 hPa 0,0 l/m 0,0 m/s (0 Bft) W-SW 255 0 min 0 lux 6,8 C 8,0 C
13.09.2007 00:05 7,9 C 7,5 C 9,1 C 93 % 1026 hPa 0,0 l/m 0,0 m/s (0 Bft) W-SW 255 0 min 0 lux 6,8 C 7,9 C
13.09.2007 00:10 8,0 C 7,4 C 9,0 C 92 % 1026 hPa 0,0 l/m 0,0 m/s (0 Bft) W-SW 255 0 min 0 lux 6,8 C 8,0 C
13.09.2007 00:15 8,0 C 7,3 C 9,0 C 92 % 1026 hPa 0,0 l/m 0,0 m/s (0 Bft) W-SW 255 0 min 0 lux 6,8 C 8,0 C
13.09.2007 00:20 7,8 C 7,2 C 8,9 C 93 % 1026 hPa 0,0 l/m 0,0 m/s (0 Bft) W-SW 255 0 min 0 lux 6,7 C 7,8 C
13.09.2007 00:25 7,8 C 7,1 C 8,8 C 93 % 1026 hPa 0,0 l/m 0,1 m/s (0 Bft) W-SW 255 0 min 0 lux 6,7 C 7,8 C
13.09.2007 00:30 7,9 C 7,1 C 8,7 C 93 % 1026 hPa 0,0 l/m 0,0 m/s (0 Bft) W-SW 255 0 min 0 lux 6,8 C 7,9 C
13.09.2007 00:35 8,0 C 7,0 C 8,8 C 93 % 1026 hPa 0,0 l/m 0,0 m/s (0 Bft) W-SW 255 0 min 0 lux 6,9 C 8,0 C
13.09.2007 00:40 8,0 C 7,0 C 8,8 C 93 % 1026 hPa 0,0 l/m 0,0 m/s (0 Bft) W-SW 255 0 min 0 lux 6,9 C 8,0 C
13.09.2007 00:45 8,2 C 7,0 C 8,7 C 93 % 1026 hPa 0,0 l/m 0,0 m/s (0 Bft) W-SW 255 0 min 0 lux 7,1 C 8,2 C
13.09.2007 00:50 8,0 C 6,9 C 8,7 C 93 % 1026 hPa 0,0 l/m 0,0 m/s (0 Bft) W-SW 255 0 min 0 lux 6,9 C 8,0 C
13.09.2007 00:55 8,0 C 6,9 C 8,6 C 93 % 1026 hPa 0,0 l/m 0,0 m/s (0 Bft) W-SW 255 0 min 0 lux 6,9 C 8,0 C
13.09.2007 01:00 7,7 C 6,8 C 8,6 C 94 % 1026 hPa 0,0 l/m 0,7 m/s (1 Bft) W-SW 255 0 min 0 lux 6,8 C 7,7 C
13.09.2007 01:05 7,5 C 6,7 C 8,6 C 94 % 1026 hPa 0,0 l/m 0,0 m/s (0 Bft) W-SW 255 0 min 0 lux 6,6 C 7,5 C
13.09.2007 01:10 7,5 C 6,7 C 8,6 C 94 % 1026 hPa 0,0 l/m 0,0 m/s (0 Bft) W-SW 250 0 min 0 lux 6,6 C 7,5 C
13.09.2007 01:15 7,8 C 6,6 C 8,5 C 94 % 1027 hPa 0,0 l/m 0,0 m/s (0 Bft) W-SW 255 0 min 0 lux 6,9 C 7,8 C
13.09.2007 01:20 7,5 C 6,5 C 8,6 C 94 % 1026 hPa 0,0 l/m 0,0 m/s (0 Bft) W-SW 255 0 min 0 lux 6,6 C 7,5 C
13.09.2007 01:25 7,4 C 6,5 C 8,3 C 94 % 1026 hPa 0,0 l/m 0,0 m/s (0 Bft) W-SW 255 0 min 0 lux 6,5 C 7,4 C
13.09.2007 01:30 7,4 C 6,4 C 8,3 C 94 % 1026 hPa 0,0 l/m 0,0 m/s (0 Bft) W-SW 250 0 min 0 lux 6,5 C 7,4 C
13.09.2007 01:35 7,3 C 6,4 C 8,3 C 94 % 1026 hPa 0,0 l/m 0,0 m/s (0 Bft) W-SW 250 0 min 0 lux 6,4 C 7,3 C
13.09.2007 01:40 7,4 C 6,3 C 8,3 C 94 % 1026 hPa 0,0 l/m 0,0 m/s (0 Bft) W-SW 250 0 min 0 lux 6,5 C 7,4 C
13.09.2007 01:45 7,5 C 6,3 C 8,2 C 94 % 1026 hPa 0,0 l/m 0,0 m/s (0 Bft) W-SW 250 0 min 0 lux 6,6 C 7,5 C
13.09.2007 01:50 7,3 C 6,3 C 8,3 C 94 % 1026 hPa 0,0 l/m 0,0 m/s (0 Bft) W-SW 250 0 min 0 lux 6,4 C 7,3 C
13.09.2007 01:55 7,1 C 6,2 C 8,2 C 94 % 1026 hPa 0,0 l/m 0,0 m/s (0 Bft) W-SW 250 0 min 0 lux 6,2 C 7,1 C
13.09.2007 02:00 7,1 C 6,2 C 8,2 C 94 % 1026 hPa 0,0 l/m 0,0 m/s (0 Bft) W-SW 250 0 min 0 lux 6,2 C 7,1 C
13.09.2007 02:05 7,1 C 6,1 C 8,2 C 94 % 1026 hPa 0,0 l/m 0,1 m/s (0 Bft) W-SW 250 0 min 0 lux 6,2 C 7,1 C
13.09.2007 02:10 7,2 C 6,0 C 8,1 C 94 % 1026 hPa 0,0 l/m 0,0 m/s (0 Bft) W-SW 250 0 min 0 lux 6,3 C 7,2 C
13.09.2007 02:15 7,1 C 6,1 C 8,0 C 94 % 1026 hPa 0,0 l/m 0,1 m/s (0 Bft) W-SW 250 0 min 0 lux 6,2 C 7,1 C
13.09.2007 02:20 7,1 C 6,0 C 8,0 C 94 % 1026 hPa 0,0 l/m 0,0 m/s (0 Bft) W-SW 250 0 min 0 lux 6,2 C 7,1 C
13.09.2007 02:25 7,0 C 6,0 C 8,0 C 94 % 1026 hPa 0,0 l/m 0,0 m/s (0 Bft) W-SW 250 0 min 0 lux 6,1 C 7,0 C
13.09.2007 02:30 6,8 C 5,9 C 8,0 C 95 % 1026 hPa 0,0 l/m 0,0 m/s (0 Bft) W-SW 250 0 min 0 lux 6,1 C 6,8 C
13.09.2007 02:35 6,9 C 5,9 C 7,9 C 95 % 1026 hPa 0,0 l/m 0,0 m/s (0 Bft) W-SW 250 0 min 0 lux 6,2 C 6,9 C
13.09.2007 02:40 7,0 C 5,8 C 7,9 C 94 % 1026 hPa 0,0 l/m 0,2 m/s (0 Bft) W-SW 250 0 min 0 lux 6,1 C 7,0 C
13.09.2007 02:45 7,0 C 5,8 C 7,9 C 95 % 1026 hPa 0,0 l/m 1,1 m/s (1 Bft) W-SW 255 0 min 0 lux 6,3 C 7,0 C
13.09.2007 02:50 7,0 C 5,7 C 7,8 C 95 % 1026 hPa 0,0 l/m 0,1 m/s (0 Bft) W-SW 250 0 min 0 lux 6,3 C 7,0 C
13.09.2007 02:55 7,1 C 5,7 C 7,8 C 95 % 1026 hPa 0,0 l/m 0,0 m/s (0 Bft) W-SW 250 0 min 0 lux 6,4 C 7,1 C
13.09.2007 03:00 7,2 C 5,7 C 7,8 C 95 % 1026 hPa 0,0 l/m 1,1 m/s (1 Bft) W-SW 250 0 min 0 lux 6,5 C 7,2 C
13.09.2007 03:05 7,0 C 5,6 C 7,7 C 95 % 1026 hPa 0,0 l/m 0,1 m/s (0 Bft) W-SW 250 0 min 0 lux 6,3 C 7,0 C
13.09.2007 03:10 6,9 C 5,6 C 7,7 C 95 % 1026 hPa 0,0 l/m 0,1 m/s (0 Bft) W-SW 250 0 min 0 lux 6,2 C 6,9 C
13.09.2007 03:15 6,8 C 5,5 C 7,8 C 95 % 1026 hPa 0,0 l/m 0,0 m/s (0 Bft) W-SW 250 0 min 0 lux 6,1 C 6,8 C
13.09.2007 03:20 6,7 C 5,5 C 7,8 C 95 % 1026 hPa 0,0 l/m 0,0 m/s (0 Bft) W-SW 250 0 min 0 lux 6,0 C 6,7 C
13.09.2007 03:25 6,5 C 5,5 C 7,6 C 95 % 1026 hPa 0,0 l/m 0,0 m/s (0 Bft) W-SW 250 0 min 0 lux 5,8 C 6,5 C
13.09.2007 03:30 6,5 C 5,4 C 7,5 C 95 % 1026 hPa 0,0 l/m 0,0 m/s (0 Bft) W-SW 250 0 min 0 lux 5,8 C 6,5 C
13.09.2007 03:35 6,6 C 5,5 C 7,6 C 95 % 1026 hPa 0,0 l/m 0,0 m/s (0 Bft) W-SW 250 0 min 0 lux 5,9 C 6,6 C
13.09.2007 03:40 6,8 C 5,5 C 7,8 C 95 % 1026 hPa 0,0 l/m 0,0 m/s (0 Bft) W-SW 250 0 min 0 lux 6,1 C 6,8 C
13.09.2007 03:45 7,1 C 5,5 C 7,8 C 95 % 1026 hPa 0,0 l/m 0,0 m/s (0 Bft) W-SW 250 0 min 0 lux 6,4 C 7,1 C
13.09.2007 03:50 7,3 C 5,5 C 7,8 C 95 % 1026 hPa 0,0 l/m 0,0 m/s (0 Bft) W-SW 250 0 min 0 lux 6,6 C 7,3 C
13.09.2007 03:55 7,3 C 5,6 C 7,8 C 95 % 1026 hPa 0,0 l/m 0,0 m/s (0 Bft) W-SW 250 0 min 0 lux 6,6 C 7,3 C
13.09.2007 04:00 7,4 C 5,6 C 7,9 C 95 % 1026 hPa 0,0 l/m 0,0 m/s (0 Bft) W-SW 250 0 min 0 lux 6,7 C 7,4 C
13.09.2007 04:05 7,3 C 5,6 C 8,0 C 95 % 1026 hPa 0,0 l/m 0,0 m/s (0 Bft) W-SW 250 0 min 0 lux 6,6 C 7,3 C
13.09.2007 04:10 7,3 C 5,7 C 8,0 C 95 % 1026 hPa 0,0 l/m 0,0 m/s (0 Bft) W-SW 250 0 min 0 lux 6,6 C 7,3 C
13.09.2007 04:15 7,4 C 5,8 C 8,0 C 95 % 1026 hPa 0,0 l/m 0,0 m/s (0 Bft) W-SW 250 0 min 0 lux 6,7 C 7,4 C
13.09.2007 04:20 7,5 C 5,9 C 8,1 C 95 % 1026 hPa 0,0 l/m 0,0 m/s (0 Bft) W-SW 250 0 min 0 lux 6,8 C 7,5 C
13.09.2007 04:25 7,8 C 6,0 C 8,2 C 95 % 1026 hPa 0,0 l/m 0,0 m/s (0 Bft) W-SW 250 0 min 0 lux 7,0 C 7,8 C
13.09.2007 04:30 7,8 C 6,1 C 8,1 C 95 % 1026 hPa 0,0 l/m 0,0 m/s (0 Bft) W-SW 250 0 min 0 lux 7,0 C 7,8 C
13.09.2007 04:35 7,8 C 6,1 C 8,2 C 95 % 1026 hPa 0,0 l/m 0,0 m/s (0 Bft) W-SW 250 0 min 0 lux 7,0 C 7,8 C
13.09.2007 04:40 8,0 C 6,2 C 8,3 C 95 % 1026 hPa 0,0 l/m 0,0 m/s (0 Bft) W-SW 250 0 min 0 lux 7,2 C 8,0 C
13.09.2007 04:45 8,0 C 6,2 C 8,3 C 95 % 1026 hPa 0,0 l/m 0,0 m/s (0 Bft) W-SW 250 0 min 0 lux 7,2 C 8,0 C
13.09.2007 04:50 7,8 C 6,3 C 8,3 C 95 % 1026 hPa 0,0 l/m 0,0 m/s (0 Bft) W-SW 250 0 min 0 lux 7,0 C 7,8 C
13.09.2007 04:55 7,9 C 6,3 C 8,3 C 95 % 1026 hPa 0,0 l/m 0,1 m/s (0 Bft) W-SW 250 0 min 0 lux 7,1 C 7,9 C
13.09.2007 05:00 8,0 C 6,4 C 8,4 C 95 % 1026 hPa 0,0 l/m 0,0 m/s (0 Bft) W-SW 250 0 min 0 lux 7,2 C 8,0 C
13.09.2007 05:05 8,1 C 6,5 C 8,5 C 95 % 1026 hPa 0,0 l/m 0,0 m/s (0 Bft) W-SW 250 0 min 0 lux 7,3 C 8,1 C
13.09.2007 05:10 8,2 C 6,6 C 8,5 C 95 % 1026 hPa 0,0 l/m 0,0 m/s (0 Bft) W-SW 250 0 min 0 lux 7,4 C 8,2 C
13.09.2007 05:15 8,4 C 6,6 C 8,6 C 95 % 1026 hPa 0,0 l/m 0,0 m/s (0 Bft) W-SW 250 0 min 0 lux 7,6 C 8,4 C
13.09.2007 05:20 8,3 C 6,7 C 8,6 C 95 % 1026 hPa 0,0 l/m 0,0 m/s (0 Bft) W-SW 250 0 min 0 lux 7,5 C 8,3 C
13.09.2007 05:25 8,4 C 6,7 C 8,6 C 95 % 1026 hPa 0,0 l/m 0,0 m/s (0 Bft) W-SW 250 0 min 0 lux 7,6 C 8,4 C
13.09.2007 05:30 8,5 C 6,7 C 8,6 C 95 % 1026 hPa 0,0 l/m 0,0 m/s (0 Bft) W-SW 250 0 min 0 lux 7,7 C 8,5 C
13.09.2007 05:35 8,4 C 6,8 C 8,7 C 95 % 1026 hPa 0,0 l/m 0,0 m/s (0 Bft) W-SW 250 0 min 0 lux 7,6 C 8,4 C
13.09.2007 05:40 8,4 C 6,8 C 8,7 C 95 % 1026 hPa 0,0 l/m 0,0 m/s (0 Bft) W-SW 245 0 min 0 lux 7,6 C 8,4 C
13.09.2007 05:45 8,4 C 6,9 C 8,7 C 95 % 1026 hPa 0,0 l/m 0,0 m/s (0 Bft) W-SW 245 0 min 0 lux 7,6 C 8,4 C
13.09.2007 05:50 8,4 C 6,9 C 8,7 C 95 % 1026 hPa 0,0 l/m 0,0 m/s (0 Bft) W-SW 245 0 min 0 lux 7,6 C 8,4 C
13.09.2007 05:55 8,4 C 6,9 C 8,6 C 94 % 1026 hPa 0,0 l/m 0,0 m/s (0 Bft) W-SW 245 0 min 0 lux 7,5 C 8,4 C
13.09.2007 06:00 8,4 C 7,0 C 8,7 C 94 % 1026 hPa 0,0 l/m 0,0 m/s (0 Bft) W-SW 245 0 min 0 lux 7,5 C 8,4 C
13.09.2007 06:05 8,3 C 7,0 C 8,7 C 94 % 1025 hPa 0,0 l/m 0,0 m/s (0 Bft) W-SW 245 0 min 0 lux 7,4 C 8,3 C
13.09.2007 06:10 8,2 C 7,0 C 8,5 C 94 % 1025 hPa 0,0 l/m 0,0 m/s (0 Bft) W-SW 245 0 min 0 lux 7,3 C 8,2 C
13.09.2007 06:15 8,3 C 6,9 C 8,6 C 94 % 1025 hPa 0,0 l/m 0,0 m/s (0 Bft) W-SW 245 0 min 0 lux 7,4 C 8,3 C
13.09.2007 06:20 8,4 C 6,9 C 8,6 C 94 % 1025 hPa 0,0 l/m 0,0 m/s (0 Bft) W-SW 245 0 min 0 lux 7,5 C 8,4 C
13.09.2007 06:25 8,5 C 6,9 C 8,7 C 94 % 1025 hPa 0,0 l/m 0,0 m/s (0 Bft) W-SW 245 0 min 0 lux 7,6 C 8,5 C
13.09.2007 06:30 8,5 C 6,9 C 8,8 C 94 % 1026 hPa 0,0 l/m 0,0 m/s (0 Bft) W-SW 245 0 min 0 lux 7,6 C 8,5 C
13.09.2007 06:35 8,5 C 6,9 C 8,8 C 94 % 1026 hPa 0,0 l/m 0,0 m/s (0 Bft) W-SW 245 0 min 0 lux 7,6 C 8,5 C
13.09.2007 06:40 8,5 C 6,9 C 8,8 C 94 % 1026 hPa 0,0 l/m 0,0 m/s (0 Bft) W-SW 245 0 min 0 lux 7,6 C 8,5 C
13.09.2007 06:45 8,6 C 7,0 C 8,8 C 94 % 1026 hPa 0,0 l/m 0,0 m/s (0 Bft) W-SW 245 0 min 46 lux 7,7 C 8,6 C
13.09.2007 06:50 8,7 C 7,0 C 8,8 C 95 % 1026 hPa 0,0 l/m 0,0 m/s (0 Bft) W-SW 245 0 min 82 lux 7,9 C 8,7 C
13.09.2007 06:55 8,7 C 7,0 C 8,9 C 95 % 1026 hPa 0,0 l/m 0,0 m/s (0 Bft) W-SW 245 0 min 134 lux 7,9 C 8,7 C
13.09.2007 07:00 8,9 C 7,1 C 8,9 C 95 % 1026 hPa 0,0 l/m 0,0 m/s (0 Bft) W-SW 245 0 min 203 lux 8,1 C 8,9 C
13.09.2007 07:05 8,9 C 7,1 C 9,0 C 95 % 1025 hPa 0,0 l/m 0,0 m/s (0 Bft) W-SW 245 0 min 243 lux 8,1 C 8,9 C
13.09.2007 07:10 9,0 C 7,1 C 9,0 C 94 % 1026 hPa 0,0 l/m 0,0 m/s (0 Bft) W-SW 245 0 min 345 lux 8,1 C 9,0 C
13.09.2007 07:15 9,0 C 7,1 C 9,0 C 94 % 1026 hPa 0,0 l/m 0,0 m/s (0 Bft) W-SW 245 0 min 493 lux 8,1 C 9,0 C
13.09.2007 07:20 9,0 C 7,2 C 9,0 C 94 % 1026 hPa 0,0 l/m 0,0 m/s (0 Bft) W-SW 245 0 min 662 lux 8,1 C 9,0 C
13.09.2007 07:25 8,9 C 7,2 C 9,0 C 95 % 1026 hPa 0,0 l/m 0,0 m/s (0 Bft) W-SW 245 0 min 888 lux 8,1 C 8,9 C
13.09.2007 07:30 9,0 C 7,3 C 9,1 C 94 % 1026 hPa 0,0 l/m 0,0 m/s (0 Bft) W-SW 245 0 min 1,08 klux 8,1 C 9,0 C
13.09.2007 07:35 9,1 C 7,3 C 9,2 C 94 % 1026 hPa 0,0 l/m 0,0 m/s (0 Bft) W-SW 245 0 min 1,34 klux 8,2 C 9,1 C
13.09.2007 07:40 9,3 C 7,4 C 9,2 C 94 % 1026 hPa 0,0 l/m 0,0 m/s (0 Bft) W-SW 245 0 min 1,63 klux 8,4 C 9,3 C
13.09.2007 07:45 9,4 C 7,5 C 9,2 C 94 % 1026 hPa 0,0 l/m 0,0 m/s (0 Bft) W-SW 245 0 min 1,87 klux 8,5 C 9,4 C
13.09.2007 07:50 9,4 C 7,5 C 9,3 C 94 % 1026 hPa 0,0 l/m 0,0 m/s (0 Bft) W-SW 245 0 min 2,08 klux 8,5 C 9,4 C
13.09.2007 07:55 9,5 C 7,6 C 9,4 C 94 % 1026 hPa 0,0 l/m 0,0 m/s (0 Bft) W-SW 245 0 min 2,33 klux 8,6 C 9,5 C
13.09.2007 08:00 9,6 C 7,6 C 9,4 C 94 % 1026 hPa 0,0 l/m 0,0 m/s (0 Bft) W-SW 245 0 min 2,36 klux 8,7 C 9,6 C
13.09.2007 08:05 9,7 C 7,7 C 9,5 C 94 % 1026 hPa 0,0 l/m 0,0 m/s (0 Bft) W-SW 245 0 min 2,50 klux 8,8 C 9,7 C
13.09.2007 08:10 9,8 C 7,8 C 9,4 C 94 % 1026 hPa 0,0 l/m 0,0 m/s (0 Bft) W-SW 245 0 min 2,93 klux 8,9 C 9,8 C
13.09.2007 08:15 9,9 C 7,8 C 9,5 C 93 % 1026 hPa 0,0 l/m 0,0 m/s (0 Bft) W-SW 245 0 min 3,28 klux 8,8 C 9,9 C
13.09.2007 08:20 9,9 C 7,9 C 9,5 C 93 % 1026 hPa 0,0 l/m 0,0 m/s (0 Bft) W-SW 245 0 min 3,69 klux 8,8 C 9,9 C
13.09.2007 08:25 10,0 C 8,0 C 9,7 C 92 % 1026 hPa 0,0 l/m 0,0 m/s (0 Bft) W-SW 245 0 min 3,81 klux 8,8 C 10,0 C
13.09.2007 08:30 10,4 C 8,1 C 9,7 C 92 % 1026 hPa 0,0 l/m 0,0 m/s (0 Bft) W-SW 245 0 min 3,83 klux 9,2 C 10,4 C
13.09.2007 08:35 10,3 C 8,2 C 9,7 C 91 % 1026 hPa 0,0 l/m 0,0 m/s (0 Bft) W-SW 245 0 min 4,05 klux 8,9 C 10,3 C
13.09.2007 08:40 10,3 C 8,2 C 9,8 C 91 % 1025 hPa 0,0 l/m 0,0 m/s (0 Bft) W-SW 245 0 min 4,62 klux 8,9 C 10,3 C
13.09.2007 08:45 10,4 C 8,3 C 9,9 C 91 % 1025 hPa 0,0 l/m 0,0 m/s (0 Bft) W-SW 245 0 min 5,13 klux 9,0 C 10,4 C
13.09.2007 08:50 10,5 C 8,4 C 10,0 C 91 % 1025 hPa 0,0 l/m 0,0 m/s (0 Bft) W-SW 245 0 min 5,87 klux 9,1 C 10,5 C
13.09.2007 08:55 10,7 C 8,5 C 10,0 C 90 % 1026 hPa 0,0 l/m 0,0 m/s (0 Bft) W-SW 245 0 min 7,45 klux 9,1 C 10,7 C
13.09.2007 09:00 10,9 C 8,7 C 10,3 C 90 % 1026 hPa 0,0 l/m 0,0 m/s (0 Bft) W-SW 245 0 min 8,91 klux 9,3 C 10,9 C
13.09.2007 09:05 11,1 C 8,7 C 10,4 C 89 % 1026 hPa 0,0 l/m 0,0 m/s (0 Bft) W-SW 245 0 min 9,2 klux 9,4 C 11,1 C
13.09.2007 09:10 10,9 C 8,8 C 10,3 C 89 % 1026 hPa 0,0 l/m 0,0 m/s (0 Bft) W-SW 245 0 min 8,62 klux 9,2 C 10,9 C
13.09.2007 09:15 11,2 C 9,0 C 10,4 C 87 % 1026 hPa 0,0 l/m 0,0 m/s (0 Bft) W-SW 245 0 min 8,40 klux 9,1 C 11,2 C
13.09.2007 09:20 11,6 C 9,2 C 10,6 C 86 % 1026 hPa 0,0 l/m 0,0 m/s (0 Bft) W-SW 245 0 min 9,5 klux 9,3 C 11,6 C
13.09.2007 09:25 11,5 C 9,2 C 10,8 C 86 % 1026 hPa 0,0 l/m 0,0 m/s (0 Bft) W-SW 245 0 min 11,8 klux 9,2 C 11,5 C
13.09.2007 09:30 12,0 C 9,5 C 10,9 C 84 % 1026 hPa 0,0 l/m 0,0 m/s (0 Bft) W-SW 245 0 min 13,5 klux 9,4 C 12,0 C
13.09.2007 09:35 12,4 C 9,7 C 11,1 C 83 % 1026 hPa 0,0 l/m 0,0 m/s (0 Bft) W-SW 245 0 min 13,2 klux 9,6 C 12,4 C
13.09.2007 09:40 12,5 C 9,8 C 11,1 C 82 % 1026 hPa 0,0 l/m 0,0 m/s (0 Bft) W-SW 245 0 min 13,7 klux 9,5 C 12,5 C
13.09.2007 09:45 12,6 C 10,0 C 11,3 C 81 % 1026 hPa 0,0 l/m 0,0 m/s (0 Bft) W-SW 245 0 min 14,3 klux 9,4 C 12,6 C
13.09.2007 09:50 12,7 C 10,2 C 11,5 C 79 % 1026 hPa 0,0 l/m 0,0 m/s (0 Bft) W-SW 245 0 min 16,1 klux 9,2 C 12,7 C
13.09.2007 09:55 13,2 C 10,3 C 11,7 C 78 % 1026 hPa 0,0 l/m 0,0 m/s (0 Bft) W-SW 245 0 min 16,9 klux 9,4 C 13,2 C
13.09.2007 10:00 12,9 C 10,6 C 11,9 C 78 % 1026 hPa 0,0 l/m 0,0 m/s (0 Bft) W-SW 245 0 min 18,2 klux 9,2 C 12,9 C
13.09.2007 10:05 13,5 C 10,9 C 12,1 C 77 % 1026 hPa 0,0 l/m 0,0 m/s (0 Bft) W-SW 245 0 min 20,7 klux 9,5 C 13,5 C
13.09.2007 10:10 13,8 C 11,0 C 12,3 C 76 % 1026 hPa 0,0 l/m 0,0 m/s (0 Bft) W-SW 245 0 min 25,2 klux 9,6 C 13,8 C
13.09.2007 10:15 13,8 C 11,0 C 12,7 C 76 % 1026 hPa 0,0 l/m 0,0 m/s (0 Bft) W-SW 245 0 min 27,9 klux 9,6 C 13,8 C
13.09.2007 10:20 14,6 C 11,9 C 12,9 C 73 % 1026 hPa 0,0 l/m 0,0 m/s (0 Bft) W-SW22.5 255 5 min 46,1 klux 9,8 C 14,6 C
13.09.2007 10:25 14,7 C 12,3 C 13,1 C 72 % 1026 hPa 0,0 l/m 0,0 m/s (0 Bft) W22.5 260 0 min 27,8 klux 9,7 C 14,7 C
13.09.2007 10:30 14,8 C 12,6 C 13,3 C 72 % 1026 hPa 0,0 l/m 0,0 m/s (0 Bft) W-SW 240 0 min 26,5 klux 9,8 C 14,8 C
13.09.2007 10:35 14,7 C 13,1 C 13,6 C 72 % 1026 hPa 0,0 l/m 0,0 m/s (0 Bft) SW22.5 230 0 min 27,9 klux 9,7 C 14,7 C
13.09.2007 10:40 15,0 C 13,3 C 13,8 C 71 % 1026 hPa 0,0 l/m 0,0 m/s (0 Bft) SW 220 5 min 43,2 klux 9,8 C 15,0 C
13.09.2007 10:45 15,4 C 14,0 C 14,1 C 70 % 1026 hPa 0,0 l/m 0,0 m/s (0 Bft) SW22.5 230 5 min 52,2 klux 10,0 C 15,4 C
13.09.2007 10:50 15,8 C 14,5 C 14,5 C 69 % 1025 hPa 0,0 l/m 0,0 m/s (0 Bft) SW 230 0 min 33,5 klux 10,1 C 15,8 C
13.09.2007 10:55 16,4 C 15,1 C 14,6 C 65 % 1026 hPa 0,0 l/m 0,0 m/s (0 Bft) SW22.5 225 0 min 40,3 klux 9,8 C 16,4 C
13.09.2007 11:00 16,4 C 15,7 C 14,7 C 65 % 1026 hPa 0,0 l/m 0,0 m/s (0 Bft) SW 220 0 min 29,7 klux 9,8 C 16,4 C
13.09.2007 11:05 16,5 C 16,0 C 14,8 C 63 % 1025 hPa 0,0 l/m 0,1 m/s (0 Bft) SW22.5 220 0 min 27,7 klux 9,4 C 16,5 C
13.09.2007 11:10 16,5 C 16,5 C 15,0 C 60 % 1026 hPa 0,0 l/m 0,0 m/s (0 Bft) SO 135 0 min 27,8 klux 8,7 C 16,5 C
13.09.2007 11:15 16,8 C 16,7 C 15,1 C 59 % 1025 hPa 0,0 l/m 0,0 m/s (0 Bft) SO 135 0 min 26,9 klux 8,7 C 16,8 C
13.09.2007 11:20 16,2 C 16,7 C 15,3 C 60 % 1025 hPa 0,0 l/m 0,0 m/s (0 Bft) SO 140 0 min 26,5 klux 8,4 C 16,2 C
13.09.2007 11:25 16,4 C 16,9 C 15,3 C 60 % 1025 hPa 0,0 l/m 0,0 m/s (0 Bft) S-SW 200 0 min 26,4 klux 8,6 C 16,4 C
13.09.2007 11:30 16,9 C 17,1 C 15,6 C 62 % 1025 hPa 0,0 l/m 0,0 m/s (0 Bft) S-SW 210 0 min 27,1 klux 9,6 C 16,9 C
13.09.2007 11:35 16,9 C 17,4 C 15,7 C 62 % 1025 hPa 0,0 l/m 0,0 m/s (0 Bft) S-SW 210 0 min 27,4 klux 9,6 C 16,9 C
13.09.2007 11:40 17,2 C 17,5 C 15,9 C 59 % 1025 hPa 0,0 l/m 0,1 m/s (0 Bft) S 170 0 min 30,2 klux 9,1 C 17,2 C
13.09.2007 11:45 17,1 C 17,8 C 16,2 C 57 % 1025 hPa 0,0 l/m 0,0 m/s (0 Bft) S 170 0 min 32,5 klux 8,5 C 17,1 C
13.09.2007 11:50 17,5 C 18,2 C 16,1 C 58 % 1025 hPa 0,0 l/m 0,0 m/s (0 Bft) SW22.5 215 0 min 30,6 klux 9,1 C 17,5 C
13.09.2007 11:55 17,2 C 18,3 C 16,2 C 58 % 1025 hPa 0,0 l/m 0,1 m/s (0 Bft) S-SW 200 0 min 26,5 klux 8,9 C 17,2 C
13.09.2007 12:00 16,7 C 18,5 C 16,1 C 59 % 1025 hPa 0,0 l/m 0,0 m/s (0 Bft) W 260 0 min 24,4 klux 8,6 C 16,7 C
13.09.2007 12:05 17,1 C 18,5 C 16,1 C 56 % 1025 hPa 0,0 l/m 0,0 m/s (0 Bft) SW 220 0 min 22,9 klux 8,3 C 17,1 C
13.09.2007 12:10 17,0 C 18,6 C 16,2 C 53 % 1025 hPa 0,0 l/m 0,0 m/s (0 Bft) W-SW 240 0 min 19,8 klux 7,4 C 17,0 C
13.09.2007 12:15 17,0 C 18,4 C 16,2 C 56 % 1025 hPa 0,0 l/m 0,0 m/s (0 Bft) W-SW 240 0 min 17,7 klux 8,2 C 17,0 C
13.09.2007 12:20 16,7 C 18,3 C 16,3 C 55 % 1025 hPa 0,0 l/m 1,8 m/s (2 Bft) W-SW22.5 240 0 min 17,3 klux 7,6 C 16,6 C
13.09.2007 12:24 17,0 C 18,2 C 16,4 C 54 % 1025 hPa 0,0 l/m 0,0 m/s (0 Bft) W-SW 250 0 min 19,2 klux 7,6 C 17,0 C
13.09.2007 12:30 17,1 C 18,1 C 16,4 C 53 % 1025 hPa 0,0 l/m 0,0 m/s (0 Bft) W-SW 250 0 min 21,2 klux 7,4 C 17,1 C
13.09.2007 12:35 17,7 C 18,0 C 16,5 C 53 % 1025 hPa 0,0 l/m 0,0 m/s (0 Bft) W-SW 250 0 min 24,1 klux 8,0 C 17,7 C
13.09.2007 12:40 17,7 C 18,1 C 16,6 C 53 % 1025 hPa 0,0 l/m 0,0 m/s (0 Bft) W-SW 250 0 min 26,4 klux 8,0 C 17,7 C
13.09.2007 12:45 17,9 C 18,1 C 16,9 C 49 % 1025 hPa 0,0 l/m 0,0 m/s (0 Bft) W-SW 250 0 min 28,8 klux 7,0 C 17,9 C
13.09.2007 12:50 17,6 C 18,6 C 17,2 C 50 % 1025 hPa 0,0 l/m 0,0 m/s (0 Bft) W-SW 250 5 min 75,2 klux 7,1 C 17,6 C
13.09.2007 12:55 17,6 C 19,1 C 17,4 C 49 % 1025 hPa 0,0 l/m 1,1 m/s (1 Bft) O-SO22.5 105 0 min 30,4 klux 6,8 C 17,6 C
13.09.2007 13:00 17,0 C 19,2 C 17,1 C 48 % 1025 hPa 0,0 l/m 0,0 m/s (0 Bft) SO22.5 125 0 min 25,3 klux 5,9 C 17,0 C
13.09.2007 13:05 17,1 C 19,1 C 17,1 C 51 % 1025 hPa 0,0 l/m 0,0 m/s (0 Bft) SO 125 0 min 22,1 klux 6,9 C 17,1 C
13.09.2007 13:10 17,2 C 19,0 C 17,3 C 52 % 1025 hPa 0,0 l/m 0,1 m/s (0 Bft) SO 125 0 min 20,0 klux 7,3 C 17,2 C
13.09.2007 13:15 17,4 C 19,0 C 17,1 C 54 % 1025 hPa 0,0 l/m 0,0 m/s (0 Bft) SO22.5 125 0 min 19,5 klux 8,0 C 17,4 C
13.09.2007 13:20 16,9 C 18,9 C 17,3 C 56 % 1025 hPa 0,0 l/m 1,6 m/s (2 Bft) W-SW67.5 240 0 min 22,1 klux 8,1 C 16,9 C
13.09.2007 13:25 17,0 C 19,0 C 17,3 C 52 % 1025 hPa 0,0 l/m 1,9 m/s (2 Bft) W22.5 265 0 min 23,4 klux 7,1 C 16,9 C
13.09.2007 13:30 17,2 C 19,1 C 17,5 C 52 % 1025 hPa 0,0 l/m 1,4 m/s (1 Bft) W-SW22.5 240 0 min 25,3 klux 7,3 C 17,2 C
13.09.2007 13:35 17,3 C 19,1 C 17,4 C 51 % 1025 hPa 0,0 l/m 2,9 m/s (2 Bft) W-SW45 250 0 min 29,3 klux 7,1 C 15,5 C
13.09.2007 13:40 18,0 C 19,3 C 17,7 C 51 % 1025 hPa 0,0 l/m 0,4 m/s (1 Bft) W22.5 270 0 min 32,2 klux 7,7 C 18,0 C
13.09.2007 13:45 18,0 C 19,4 C 17,8 C 48 % 1025 hPa 0,0 l/m 1,8 m/s (2 Bft) W-NW22.5 285 0 min 38,2 klux 6,8 C 18,0 C
13.09.2007 13:50 17,9 C 20,2 C 17,9 C 47 % 1025 hPa 0,0 l/m 2,0 m/s (2 Bft) W22.5 260 5 min 56,7 klux 6,4 C 17,5 C
13.09.2007 13:55 18,5 C 21,0 C 18,3 C 47 % 1025 hPa 0,0 l/m 1,3 m/s (1 Bft) W22.5 275 5 min 85,3 klux 7,0 C 18,5 C
13.09.2007 14:00 18,5 C 21,8 C 18,2 C 47 % 1025 hPa 0,0 l/m 1,8 m/s (2 Bft) W-SW22.5 255 0 min 39,0 klux 7,0 C 18,5 C
13.09.2007 14:05 18,2 C 22,1 C 18,5 C 48 % 1025 hPa 0,0 l/m 0,0 m/s (0 Bft) SW 235 0 min 44,7 klux 7,0 C 18,2 C
13.09.2007 14:10 18,7 C 22,9 C 18,2 C 44 % 1024 hPa 0,0 l/m 3,2 m/s (2 Bft) W45 265 5 min 85,9 klux 6,2 C 16,7 C
13.09.2007 14:15 18,1 C 23,4 C 18,2 C 47 % 1024 hPa 0,0 l/m 0,3 m/s (0 Bft) O-SO 105 0 min 40,9 klux 6,6 C 18,1 C
13.09.2007 14:20 18,3 C 24,4 C 18,6 C 46 % 1024 hPa 0,0 l/m 1,6 m/s (2 Bft) O-SO22.5 105 5 min 71,7 klux 6,5 C 18,3 C
13.09.2007 14:25 19,4 C 25,4 C 18,7 C 47 % 1024 hPa 0,0 l/m 1,9 m/s (2 Bft) S-SO45 160 5 min 78,4 klux 7,8 C 19,3 C
13.09.2007 14:30 19,9 C 27,5 C 18,3 C 43 % 1024 hPa 0,0 l/m 2,5 m/s (2 Bft) O-SO45 120 5 min 76,0 klux 6,9 C 18,9 C
13.09.2007 14:35 19,9 C 27,4 C 18,4 C 41 % 1024 hPa 0,0 l/m 0,0 m/s (0 Bft) SO22.5 145 0 min 27,5 klux 6,3 C 19,9 C
13.09.2007 14:40 18,5 C 26,0 C 18,2 C 46 % 1024 hPa 0,0 l/m 1,6 m/s (1 Bft) SW45 215 0 min 24,5 klux 6,7 C 18,5 C
13.09.2007 14:45 18,6 C 25,3 C 18,4 C 45 % 1024 hPa 0,0 l/m 1,4 m/s (1 Bft) SW22.5 235 0 min 23,8 klux 6,4 C 18,6 C
13.09.2007 14:50 18,4 C 24,3 C 18,4 C 45 % 1024 hPa 0,0 l/m 0,0 m/s (0 Bft) W-SW 245 0 min 23,4 klux 6,3 C 18,4 C
13.09.2007 14:55 18,4 C 23,6 C 18,2 C 46 % 1024 hPa 0,0 l/m 1,7 m/s (2 Bft) S-SO67.5 150 0 min 22,7 klux 6,6 C 18,4 C
13.09.2007 15:00 17,9 C 23,2 C 18,2 C 45 % 1024 hPa 0,0 l/m 2,4 m/s (2 Bft) W-SW45 250 0 min 22,6 klux 5,8 C 16,9 C
13.09.2007 15:05 17,9 C 22,6 C 18,3 C 45 % 1024 hPa 0,0 l/m 1,9 m/s (2 Bft) W22.5 265 0 min 22,6 klux 5,8 C 17,6 C
13.09.2007 15:10 17,9 C 22,1 C 18,3 C 44 % 1024 hPa 0,0 l/m 1,5 m/s (1 Bft) W22.5 260 0 min 23,4 klux 5,5 C 17,9 C
13.09.2007 15:15 18,1 C 21,7 C 18,3 C 42 % 1024 hPa 0,0 l/m 1,6 m/s (2 Bft) W-SW 250 0 min 24,2 klux 5,0 C 18,1 C
13.09.2007 15:20 18,4 C 21,6 C 17,9 C 42 % 1024 hPa 0,0 l/m 0,0 m/s (0 Bft) W-SW 250 0 min 23,4 klux 5,3 C 18,4 C
13.09.2007 15:25 18,6 C 21,3 C 18,4 C 41 % 1024 hPa 0,0 l/m 0,0 m/s (0 Bft) W-SW 250 0 min 24,2 klux 5,1 C 18,6 C
13.09.2007 15:30 18,6 C 21,3 C 18,5 C 42 % 1024 hPa 0,0 l/m 0,0 m/s (0 Bft) W-SW 250 0 min 26,6 klux 5,4 C 18,6 C
13.09.2007 15:35 18,7 C 21,3 C 18,4 C 43 % 1024 hPa 0,0 l/m 0,0 m/s (0 Bft) W-SW 250 0 min 26,7 klux 5,9 C 18,7 C
13.09.2007 15:40 18,7 C 21,4 C 18,5 C 43 % 1024 hPa 0,0 l/m 1,3 m/s (1 Bft) N 10 0 min 26,2 klux 5,9 C 18,7 C
13.09.2007 15:45 19,1 C 21,3 C 18,7 C 44 % 1024 hPa 0,0 l/m 0,0 m/s (0 Bft) SO 135 0 min 24,6 klux 6,6 C 19,1 C
13.09.2007 15:50 19,1 C 21,4 C 18,3 C 42 % 1024 hPa 0,0 l/m 1,8 m/s (2 Bft) SO22.5 145 0 min 24,2 klux 5,9 C 19,1 C
13.09.2007 15:55 19,1 C 21,3 C 18,3 C 44 % 1024 hPa 0,0 l/m 0,2 m/s (0 Bft) SO 140 0 min 24,5 klux 6,6 C 19,1 C
13.09.2007 16:00 19,0 C 21,2 C 18,3 C 44 % 1024 hPa 0,0 l/m 1,9 m/s (2 Bft) O-SO45 110 0 min 23,7 klux 6,5 C 18,9 C
13.09.2007 16:05 18,3 C 21,2 C 18,5 C 45 % 1024 hPa 0,0 l/m 0,2 m/s (0 Bft) O 100 0 min 24,9 klux 6,2 C 18,3 C
13.09.2007 16:10 18,3 C 21,2 C 18,1 C 48 % 1023 hPa 0,0 l/m 0,0 m/s (0 Bft) O 100 0 min 21,9 klux 7,1 C 18,3 C
13.09.2007 16:15 18,3 C 21,0 C 18,3 C 47 % 1023 hPa 0,0 l/m 0,0 m/s (0 Bft) O 95 0 min 21,1 klux 6,8 C 18,3 C
13.09.2007 16:20 18,2 C 21,0 C 18,1 C 46 % 1023 hPa 0,0 l/m 0,0 m/s (0 Bft) O 95 0 min 20,3 klux 6,4 C 18,2 C
13.09.2007 16:25 18,3 C 20,9 C 18,3 C 46 % 1023 hPa 0,0 l/m 0,0 m/s (0 Bft) O-SO 115 0 min 18,2 klux 6,5 C 18,3 C
13.09.2007 16:30 18,6 C 20,7 C 18,3 C 48 % 1023 hPa 0,0 l/m 0,1 m/s (0 Bft) SO67.5 135 0 min 17,3 klux 7,4 C 18,6 C
13.09.2007 16:35 18,3 C 20,6 C 18,2 C 46 % 1023 hPa 0,0 l/m 0,1 m/s (0 Bft) W-SW 250 0 min 17,3 klux 6,5 C 18,3 C
13.09.2007 16:40 18,5 C 20,5 C 18,3 C 46 % 1023 hPa 0,0 l/m 0,1 m/s (0 Bft) SW22.5 230 0 min 18,8 klux 6,7 C 18,5 C
13.09.2007 16:45 18,2 C 20,4 C 18,4 C 46 % 1023 hPa 0,0 l/m 0,0 m/s (0 Bft) W-SW22.5 250 0 min 19,5 klux 6,4 C 18,2 C
13.09.2007 16:50 18,2 C 20,5 C 18,3 C 45 % 1023 hPa 0,0 l/m 0,0 m/s (0 Bft) W-SW 245 0 min 20,9 klux 6,1 C 18,2 C
13.09.2007 16:55 18,3 C 20,5 C 18,3 C 48 % 1023 hPa 0,0 l/m 0,0 m/s (0 Bft) W-SW 240 0 min 19,3 klux 7,1 C 18,3 C
13.09.2007 17:00 18,0 C 20,5 C 18,3 C 46 % 1023 hPa 0,0 l/m 0,0 m/s (0 Bft) W-SW 240 0 min 17,5 klux 6,2 C 18,0 C
13.09.2007 17:05 18,0 C 20,5 C 18,1 C 46 % 1023 hPa 0,0 l/m 0,0 m/s (0 Bft) S-SW 200 0 min 17,1 klux 6,2 C 18,0 C
13.09.2007 17:10 18,0 C 20,8 C 18,0 C 49 % 1023 hPa 0,0 l/m 0,0 m/s (0 Bft) S-SW 200 5 min 46,0 klux 7,1 C 18,0 C
13.09.2007 17:15 17,9 C 21,9 C 17,8 C 50 % 1023 hPa 0,0 l/m 0,0 m/s (0 Bft) S-SW 195 5 min 43,5 klux 7,3 C 17,9 C
13.09.2007 17:20 17,6 C 23,1 C 17,6 C 50 % 1023 hPa 0,0 l/m 0,1 m/s (0 Bft) SO45 125 0 min 18,0 klux 7,1 C 17,6 C
13.09.2007 17:25 17,4 C 22,6 C 17,5 C 49 % 1023 hPa 0,0 l/m 1,9 m/s (2 Bft) O22.5 80 0 min 16,0 klux 6,6 C 17,2 C
13.09.2007 17:30 17,7 C 22,0 C 17,7 C 53 % 1022 hPa 0,0 l/m 0,0 m/s (0 Bft) O 80 0 min 16,2 klux 8,0 C 17,7 C
13.09.2007 17:35 17,7 C 21,8 C 17,5 C 55 % 1022 hPa 0,0 l/m 0,0 m/s (0 Bft) O 80 0 min 14,8 klux 8,5 C 17,7 C
13.09.2007 17:40 17,0 C 21,3 C 17,5 C 54 % 1022 hPa 0,0 l/m 0,1 m/s (0 Bft) O-NO 75 0 min 13,2 klux 7,6 C 17,0 C
13.09.2007 17:45 16,6 C 20,8 C 17,1 C 54 % 1022 hPa 0,0 l/m 0,0 m/s (0 Bft) O-NO 75 0 min 11,3 klux 7,3 C 16,6 C
13.09.2007 17:50 16,6 C 20,8 C 16,9 C 52 % 1022 hPa 0,0 l/m 0,0 m/s (0 Bft) O-NO 75 5 min 24,0 klux 6,7 C 16,6 C
13.09.2007 17:55 16,6 C 21,9 C 16,9 C 54 % 1022 hPa 0,0 l/m 1,3 m/s (1 Bft) O 90 5 min 24,1 klux 7,3 C 16,6 C
13.09.2007 18:00 16,6 C 22,6 C 16,7 C 57 % 1022 hPa 0,0 l/m 0,0 m/s (0 Bft) O 90 0 min 13,5 klux 8,0 C 16,6 C
13.09.2007 18:05 16,6 C 23,0 C 16,9 C 60 % 1022 hPa 0,0 l/m 0,0 m/s (0 Bft) O 90 5 min 26,6 klux 8,8 C 16,6 C
13.09.2007 18:10 16,6 C 24,4 C 16,9 C 61 % 1022 hPa 0,0 l/m 0,0 m/s (0 Bft) O 90 5 min 23,1 klux 9,0 C 16,6 C
13.09.2007 18:15 16,4 C 24,8 C 16,9 C 65 % 1022 hPa 0,0 l/m 0,0 m/s (0 Bft) O 90 5 min 21,2 klux 9,8 C 16,4 C
13.09.2007 18:20 16,2 C 23,7 C 16,7 C 64 % 1022 hPa 0,0 l/m 0,0 m/s (0 Bft) O 90 0 min 8,71 klux 9,4 C 16,2 C
13.09.2007 18:25 16,2 C 23,1 C 16,9 C 64 % 1022 hPa 0,0 l/m 0,0 m/s (0 Bft) O 90 0 min 9,0 klux 9,4 C 16,2 C
13.09.2007 18:30 16,2 C 22,1 C 16,9 C 63 % 1022 hPa 0,0 l/m 0,0 m/s (0 Bft) O 90 0 min 8,62 klux 9,1 C 16,2 C
13.09.2007 18:35 16,2 C 21,3 C 16,8 C 63 % 1022 hPa 0,0 l/m 0,0 m/s (0 Bft) O 90 0 min 8,67 klux 9,1 C 16,2 C
13.09.2007 18:40 16,1 C 20,9 C 16,7 C 63 % 1022 hPa 0,0 l/m 0,0 m/s (0 Bft) O 90 0 min 7,72 klux 9,1 C 16,1 C
13.09.2007 18:45 16,0 C 20,2 C 16,3 C 65 % 1022 hPa 0,0 l/m 0,0 m/s (0 Bft) O 95 0 min 7,02 klux 9,4 C 16,0 C
13.09.2007 18:50 15,5 C 19,9 C 16,0 C 68 % 1022 hPa 0,0 l/m 0,0 m/s (0 Bft) O 95 0 min 5,79 klux 9,6 C 15,5 C
13.09.2007 18:55 14,9 C 19,0 C 16,0 C 72 % 1022 hPa 0,0 l/m 0,1 m/s (0 Bft) O 90 0 min 5,99 klux 9,9 C 14,9 C
13.09.2007 19:00 15,0 C 18,8 C 15,8 C 72 % 1022 hPa 0,0 l/m 0,1 m/s (0 Bft) O 80 5 min 9,8 klux 10,0 C 15,0 C
13.09.2007 19:05 15,0 C 18,3 C 15,9 C 73 % 1022 hPa 0,0 l/m 0,0 m/s (0 Bft) O-NO 75 5 min 9,1 klux 10,2 C 15,0 C
13.09.2007 19:10 14,7 C 17,9 C 15,6 C 73 % 1022 hPa 0,0 l/m 0,0 m/s (0 Bft) O-NO 75 5 min 6,76 klux 9,9 C 14,7 C
13.09.2007 19:15 14,7 C 17,7 C 15,4 C 72 % 1022 hPa 0,0 l/m 0,0 m/s (0 Bft) O-NO 75 0 min 4,56 klux 9,7 C 14,7 C
13.09.2007 19:20 14,4 C 17,1 C 15,2 C 73 % 1022 hPa 0,0 l/m 0,0 m/s (0 Bft) O-NO 75 0 min 3,05 klux 9,6 C 14,4 C
13.09.2007 19:25 13,9 C 16,6 C 14,9 C 75 % 1022 hPa 0,0 l/m 0,0 m/s (0 Bft) O-NO 75 0 min 2,65 klux 9,5 C 13,9 C
13.09.2007 19:30 13,8 C 16,3 C 15,0 C 76 % 1022 hPa 0,0 l/m 0,0 m/s (0 Bft) O-NO 75 0 min 1,95 klux 9,6 C 13,8 C
13.09.2007 19:35 13,5 C 15,8 C 14,7 C 77 % 1022 hPa 0,0 l/m 0,0 m/s (0 Bft) O-NO 75 0 min 1,14 klux 9,5 C 13,5 C
13.09.2007 19:40 13,1 C 15,3 C 14,5 C 78 % 1022 hPa 0,0 l/m 0,0 m/s (0 Bft) O-NO 75 0 min 936 lux 9,4 C 13,1 C
13.09.2007 19:45 13,0 C 14,9 C 14,2 C 79 % 1022 hPa 0,0 l/m 0,0 m/s (0 Bft) O-NO 75 0 min 622 lux 9,4 C 13,0 C
13.09.2007 19:50 12,7 C 14,9 C 13,8 C 81 % 1022 hPa 0,0 l/m 0,0 m/s (0 Bft) O22.5 80 0 min 400 lux 9,5 C 12,7 C
13.09.2007 19:55 12,3 C 14,2 C 14,0 C 81 % 1022 hPa 0,0 l/m 0,0 m/s (0 Bft) O-SO 105 0 min 240 lux 9,1 C 12,3 C
13.09.2007 20:00 12,2 C 13,8 C 13,8 C 82 % 1022 hPa 0,0 l/m 0,0 m/s (0 Bft) O-SO 105 0 min 134 lux 9,2 C 12,2 C
13.09.2007 20:05 12,1 C 13,6 C 13,5 C 82 % 1022 hPa 0,0 l/m 0,0 m/s (0 Bft) O-SO 105 0 min 70 lux 9,1 C 12,1 C
13.09.2007 20:10 11,9 C 13,2 C 13,4 C 83 % 1022 hPa 0,0 l/m 0,0 m/s (0 Bft) O-SO 105 0 min 35 lux 9,1 C 11,9 C
13.09.2007 20:15 11,8 C 12,9 C 13,3 C 83 % 1022 hPa 0,0 l/m 0,0 m/s (0 Bft) O-SO 105 0 min 17 lux 9,0 C 11,8 C
13.09.2007 20:20 11,5 C 12,8 C 13,1 C 84 % 1022 hPa 0,0 l/m 0,0 m/s (0 Bft) O-SO 105 0 min 13 lux 8,9 C 11,5 C
13.09.2007 20:25 11,2 C 12,5 C 12,9 C 84 % 1022 hPa 0,0 l/m 0,0 m/s (0 Bft) O-SO 105 0 min 8 lux 8,6 C 11,2 C
13.09.2007 20:30 11,1 C 12,2 C 12,9 C 84 % 1022 hPa 0,0 l/m 0,0 m/s (0 Bft) O-SO 105 0 min 4 lux 8,5 C 11,1 C
13.09.2007 20:35 11,0 C 11,9 C 12,7 C 84 % 1022 hPa 0,0 l/m 0,0 m/s (0 Bft) O-SO 105 0 min 2 lux 8,4 C 11,0 C
13.09.2007 20:40 11,1 C 11,8 C 12,5 C 85 % 1022 hPa 0,0 l/m 0,0 m/s (0 Bft) O-SO 105 0 min 0 lux 8,7 C 11,1 C
13.09.2007 20:45 10,7 C 11,6 C 12,2 C 86 % 1022 hPa 0,0 l/m 0,0 m/s (0 Bft) O-SO 105 0 min 0 lux 8,5 C 10,7 C
13.09.2007 20:50 10,5 C 11,5 C 12,1 C 86 % 1022 hPa 0,0 l/m 0,0 m/s (0 Bft) O-SO 105 0 min 0 lux 8,3 C 10,5 C
13.09.2007 20:55 10,4 C 11,3 C 12,1 C 86 % 1022 hPa 0,0 l/m 0,0 m/s (0 Bft) O-SO 105 0 min 0 lux 8,2 C 10,4 C
13.09.2007 21:00 10,8 C 11,3 C 12,0 C 87 % 1022 hPa 0,0 l/m 0,0 m/s (0 Bft) O-SO 105 0 min 0 lux 8,7 C 10,8 C
13.09.2007 21:05 10,4 C 11,0 C 11,7 C 87 % 1022 hPa 0,0 l/m 0,0 m/s (0 Bft) O-SO 105 0 min 0 lux 8,3 C 10,4 C
13.09.2007 21:10 10,4 C 10,8 C 11,8 C 87 % 1022 hPa 0,0 l/m 0,0 m/s (0 Bft) O-SO 105 0 min 0 lux 8,3 C 10,4 C
13.09.2007 21:15 10,5 C 10,6 C 11,6 C 88 % 1022 hPa 0,0 l/m 0,0 m/s (0 Bft) O-SO 105 0 min 0 lux 8,6 C 10,5 C
13.09.2007 21:20 10,1 C 10,4 C 11,6 C 88 % 1022 hPa 0,0 l/m 0,0 m/s (0 Bft) O-SO 105 0 min 0 lux 8,2 C 10,1 C
13.09.2007 21:25 10,1 C 10,3 C 11,4 C 88 % 1022 hPa 0,0 l/m 0,0 m/s (0 Bft) O-SO 105 0 min 0 lux 8,2 C 10,1 C
13.09.2007 21:30 9,9 C 10,2 C 11,4 C 89 % 1022 hPa 0,0 l/m 0,0 m/s (0 Bft) O-SO 105 0 min 0 lux 8,2 C 9,9 C
13.09.2007 21:35 9,8 C 10,1 C 11,3 C 89 % 1022 hPa 0,0 l/m 0,0 m/s (0 Bft) O-SO 105 0 min 0 lux 8,1 C 9,8 C
13.09.2007 21:40 9,8 C 9,9 C 11,2 C 90 % 1022 hPa 0,0 l/m 0,0 m/s (0 Bft) O-SO 105 0 min 0 lux 8,2 C 9,8 C
13.09.2007 21:45 9,6 C 9,8 C 11,3 C 90 % 1022 hPa 0,0 l/m 0,0 m/s (0 Bft) O-SO 105 0 min 0 lux 8,0 C 9,6 C
13.09.2007 21:50 9,9 C 9,7 C 11,0 C 90 % 1022 hPa 0,0 l/m 0,0 m/s (0 Bft) O-SO 105 0 min 0 lux 8,3 C 9,9 C
13.09.2007 21:55 9,5 C 9,6 C 10,9 C 90 % 1022 hPa 0,0 l/m 0,0 m/s (0 Bft) O-SO 105 0 min 0 lux 7,9 C 9,5 C
13.09.2007 22:00 9,4 C 9,5 C 10,8 C 90 % 1022 hPa 0,0 l/m 0,0 m/s (0 Bft) O-SO 105 0 min 0 lux 7,8 C 9,4 C
13.09.2007 22:05 9,3 C 9,3 C 10,7 C 90 % 1022 hPa 0,0 l/m 0,0 m/s (0 Bft) O-SO 105 0 min 0 lux 7,7 C 9,3 C
13.09.2007 22:10 9,3 C 9,2 C 10,7 C 90 % 1022 hPa 0,0 l/m 0,0 m/s (0 Bft) O-SO 105 0 min 0 lux 7,7 C 9,3 C
13.09.2007 22:15 9,1 C 9,1 C 10,6 C 90 % 1022 hPa 0,0 l/m 0,0 m/s (0 Bft) O-SO 105 0 min 0 lux 7,5 C 9,1 C
13.09.2007 22:20 8,9 C 9,1 C 10,5 C 91 % 1022 hPa 0,0 l/m 0,0 m/s (0 Bft) O-SO 105 0 min 0 lux 7,5 C 8,9 C
13.09.2007 22:25 9,0 C 8,9 C 10,4 C 90 % 1022 hPa 0,0 l/m 0,0 m/s (0 Bft) O-SO 105 0 min 0 lux 7,4 C 9,0 C
13.09.2007 22:30 9,0 C 8,8 C 10,2 C 91 % 1022 hPa 0,0 l/m 0,0 m/s (0 Bft) O-SO 105 0 min 0 lux 7,6 C 9,0 C
13.09.2007 22:35 8,6 C 8,7 C 10,2 C 92 % 1022 hPa 0,0 l/m 0,0 m/s (0 Bft) O-SO 105 0 min 0 lux 7,4 C 8,6 C
13.09.2007 22:40 8,7 C 8,6 C 10,2 C 92 % 1022 hPa 0,0 l/m 0,0 m/s (0 Bft) O-SO 105 0 min 0 lux 7,5 C 8,7 C
13.09.2007 22:45 8,7 C 8,5 C 10,1 C 92 % 1022 hPa 0,0 l/m 0,0 m/s (0 Bft) O-SO 105 0 min 0 lux 7,5 C 8,7 C
13.09.2007 22:50 8,6 C 8,4 C 10,1 C 92 % 1022 hPa 0,0 l/m 0,0 m/s (0 Bft) O-SO 105 0 min 0 lux 7,4 C 8,6 C
13.09.2007 22:55 8,7 C 8,4 C 10,2 C 92 % 1022 hPa 0,0 l/m 0,0 m/s (0 Bft) O-SO 105 0 min 0 lux 7,5 C 8,7 C
13.09.2007 23:00 8,9 C 8,4 C 10,2 C 92 % 1022 hPa 0,0 l/m 0,0 m/s (0 Bft) O-SO 105 0 min 0 lux 7,7 C 8,9 C
13.09.2007 23:05 8,8 C 8,3 C 10,1 C 92 % 1022 hPa 0,0 l/m 0,0 m/s (0 Bft) O-SO 105 0 min 0 lux 7,6 C 8,8 C
13.09.2007 23:10 8,6 C 8,3 C 10,0 C 92 % 1022 hPa 0,0 l/m 0,0 m/s (0 Bft) O-SO 105 0 min 0 lux 7,4 C 8,6 C
13.09.2007 23:14 8,5 C 8,2 C 9,8 C 92 % 1022 hPa 0,0 l/m 0,0 m/s (0 Bft) O-SO 105 0 min 0 lux 7,3 C 8,5 C
13.09.2007 23:19 8,4 C 8,2 C 9,8 C 92 % 1022 hPa 0,0 l/m 0,0 m/s (0 Bft) O-SO 105 0 min 0 lux 7,2 C 8,4 C
13.09.2007 23:25 8,2 C 8,0 C 9,6 C 92 % 1022 hPa 0,0 l/m 0,0 m/s (0 Bft) O-SO 105 0 min 0 lux 7,0 C 8,2 C
13.09.2007 23:30 8,3 C 8,0 C 9,6 C 92 % 1022 hPa 0,0 l/m 0,0 m/s (0 Bft) O-SO 105 0 min 0 lux 7,1 C 8,3 C
13.09.2007 23:35 8,2 C 7,9 C 9,6 C 92 % 1022 hPa 0,0 l/m 0,0 m/s (0 Bft) O-SO 105 0 min 0 lux 7,0 C 8,2 C
13.09.2007 23:40 8,0 C 7,7 C 9,4 C 92 % 1022 hPa 0,0 l/m 0,0 m/s (0 Bft) O-SO 105 0 min 0 lux 6,8 C 8,0 C
13.09.2007 23:45 8,0 C 7,7 C 9,5 C 92 % 1021 hPa 0,0 l/m 0,0 m/s (0 Bft) O-SO 105 0 min 0 lux 6,8 C 8,0 C
13.09.2007 23:50 8,1 C 7,6 C 9,5 C 92 % 1021 hPa 0,0 l/m 0,0 m/s (0 Bft) O-SO 105 0 min 0 lux 6,9 C 8,1 C
13.09.2007 23:55 7,9 C 7,5 C 9,3 C 93 % 1021 hPa 0,0 l/m 0,0 m/s (0 Bft) O-SO 105 0 min 0 lux 6,8 C 7,9 C
_ Min-Zeit 03:25 03:30 03:30 14:35 23:45 - 00:00 - - - - 15:15 03:25
Minimum _ 6,5 C 5,4 C 7,5 C 41 % 1021 hPa - 0,0 m/s (0 Bft) - - - - 5,0 C 6,5 C
_ Max-Zeit 14:30 14:30 14:25 02:30 01:15 00:00 14:10 - - 10:20 14:10 19:05 14:35
Maximum _ 19,9 C 27,5 C 18,7 C 95 % 1027 hPa 0,0 l/m 3,2 m/s
W (2 Bft)
- - 5 min 85,9 klux 10,2 C 19,9 C
Durchschnitt _ 12,2 C 12,6 C 12,5 C 77 % 1025 hPa #0,0 l/m 0,2 m/s (0 Bft) W-SW - #1:40 h 11,1 klux 7,7 C 12,2 C